Preview of NWS' New Version of Forecast
This preview is not operational and should not be used for support decisions.

Regional Weather Roundup (RWR)

Issued by National Weather Service (NWS)

                            
000
ASUS43 KBIS 241910
RWRND 

NORTH DAKOTA REGIONAL WEATHER ROUNDUP
NATIONAL WEATHER SERVICE BISMARCK ND
200 PM CDT FRI MAY 24 2019

NOTE: "FAIR" INDICATES FEW OR NO CLOUDS BELOW 12,000 FEET WITH NO
SIGNIFICANT WEATHER AND/OR OBSTRUCTIONS TO VISIBILITY.


NDZ001>003-009>011-017-242000-
NORTHWEST NORTH DAKOTA
  
CITY           SKY/WX    TMP DP  RH WIND       PRES   REMARKS
WILLISTON      CLOUDY    49  43  80 NE12      29.68F                  
MINOT          LGT RAIN  51  47  86 NE13      29.65F                  
MINOT AFB      LGT RAIN  50  50 100 E13       29.64F                  
$$
 
NDZ018>021-031>035-040>046-242000-
SOUTHWEST NORTH DAKOTA
  
CITY           SKY/WX    TMP DP  RH WIND       PRES   REMARKS
BISMARCK       LGT RAIN  55  52  89 SE9       29.59F FOG              
DICKINSON      LGT RAIN  49  46  90 N10       29.57S                  
GARRISON         N/A     52  51  97 E10       29.59F                  
HETTINGER ARPT CLOUDY    51  46  83 W22G30    29.63R                  
$$
 
NDZ004>008-012>016-024-026-027-054-242000-
NORTHEAST NORTH DAKOTA
  
CITY           SKY/WX    TMP DP  RH WIND       PRES   REMARKS
GRAND FORKS    LGT RAIN  53  50  89 E16       29.72F FOG              
GRND FRKS AFB  LGT RAIN  53  53 100 SE12      29.72F                  
DEVILS LAKE    LGT RAIN  51  50  96 SE15G22   29.68F                  
$$
 
NDZ022-023-025-028>030-036>039-047>053-242000-
SOUTHEAST NORTH DAKOTA
  
CITY           SKY/WX    TMP DP  RH WIND       PRES   REMARKS
FARGO          CLOUDY    55  54  96 S16       29.72R FOG              
JAMESTOWN      CLOUDY    57  51  80 S10       29.65F                  
$$